This is the latest recevied weather packets stored in our database for station/object N0EDB-13. If no packets are shown the sender has not sent any weather packets the latest 10 day(s).
| Time | Temp. | Humidity | Pressure | Rain* | Wind** | Luminosity | Snow |
|---|---|---|---|---|---|---|---|
| 1777896214 | 5.56° C | 62% | 1505.5 hPa | 0 mm | - | 7 W/m² | - |
| 1777895913 | 5.56° C | 57% | 1505.5 hPa | 0 mm | - | 4 W/m² | - |
| 1777895612 | 5.56° C | 56% | 1506.3 hPa | 0 mm | - | 2 W/m² | - |
| 1777895311 | 5° C | 58% | 1507.3 hPa | 0 mm | - | 1 W/m² | - |
| 1777895011 | 5° C | 58% | 1507.4 hPa | 0 mm | - | 1 W/m² | - |
| 1777894710 | 5° C | 58% | 1507.3 hPa | 0 mm | - | 0 W/m² | - |
| 1777894410 | 5° C | 59% | 1507.1 hPa | 0 mm | - | 0 W/m² | - |
| 1777894109 | 5° C | 58% | 1506.9 hPa | 0 mm | - | 0 W/m² | - |
| 1777893808 | 5° C | 60% | 1507.5 hPa | 0 mm | - | 0 W/m² | - |
| 1777893508 | 5° C | 60% | 1508 hPa | 0 mm | - | 0 W/m² | - |
| 1777893207 | 4.44° C | 60% | 1508.7 hPa | 0 mm | - | 0 W/m² | - |
| 1777892906 | 4.44° C | 59% | 1508.7 hPa | 0 mm | - | 0 W/m² | - |
| 1777892605 | 5° C | 58% | 1508 hPa | 0 mm | - | 0 W/m² | - |
| 1777892305 | 5° C | 56% | 1507 hPa | 0 mm | - | 0 W/m² | - |
| 1777892004 | 5.56° C | 55% | 1506.4 hPa | 0 mm | - | 0 W/m² | - |
| 1777891703 | 5.56° C | 54% | 1505.8 hPa | 0 mm | - | 0 W/m² | - |
| 1777891403 | 5.56° C | 53% | 1505.4 hPa | 0 mm | - | 0 W/m² | - |
| 1777891102 | 6.11° C | 53% | 1505.3 hPa | 0 mm | - | 0 W/m² | - |
| 1777890802 | 5.56° C | 55% | 1505.5 hPa | 0 mm | - | 0 W/m² | - |
| 1777890501 | 5.56° C | 58% | 1505.8 hPa | 0 mm | - | 0 W/m² | - |
| 1777890200 | 5.56° C | 62% | 1505.9 hPa | 0 mm | - | 0 W/m² | - |
| 1777889900 | 6.11° C | 62% | 1505.5 hPa | 0 mm | - | 0 W/m² | - |
| 1777889599 | 6.11° C | 62% | 1505 hPa | 0 mm | - | 0 W/m² | - |
| 1777889298 | 6.11° C | 62% | 1504.8 hPa | 0 mm | - | 0 W/m² | - |
| 1777888997 | 6.11° C | 62% | 1504.4 hPa | 0 mm | - | 0 W/m² | - |
* Rain latest hour (hover to see other rain measurements)
** Current wind speed in m/s (hover to see current wind gust speed)